Change the Weather History Date:

Wednesday, October 22, 2014

  Actual Average Record
Temperature  
Mean Temperature 56 °F -  
Max Temperature 66 °F 67 °F 82 °F (2007)
Min Temperature 46 °F 46 °F 35 °F (1999)
Degree Days  
Heating Degree Days 9    
Growing Degree Days 6 (Base 50)    
Moisture  
Dew Point 38 °F    
Average Humidity 53    
Maximum Humidity 66    
Minimum Humidity 37    
Precipitation  
Precipitation 0.00 in - - ()
Sea Level Pressure  
Sea Level Pressure 30.00 in    
Wind  
Wind Speed 6 mph (NNW)    
Max Wind Speed 14 mph    
Max Gust Speed 20 mph    
Visibility 10 miles    
Events      
Averages and records for this station are not official NWS values.
T = Trace of Precipitation, MM = Missing Value Source: NWS Daily Summary

Daily Weather History Graph

Daily Weather History Graph

Search for Another Location

Airport or City:

Trip Planner

Search our weather history database for the weather conditions in past years. The results will help you decide how hot, cold, wet, or windy it might be!

Date:

Astronomy

Oct. 22, 2014 Rise Set
Actual Time 7:29 AM EDT 6:33 PM EDT
Civil Twilight 7:03 AM EDT 6:59 PM EDT
Nautical Twilight 6:34 AM EDT 7:29 PM EDT
Astronomical Twilight 6:04 AM EDT 7:58 PM EDT
Moon 6:12 AM EDT (10/22) 5:57 PM EDT (10/22)
Length of Visible Light 11h 55m
Length of Day
11h 04m
Waning Crescent, 2% of the Moon is Illuminated
Oct 22
Waning Crescent
Oct 23
New
Oct 30
First Quarter
Nov 6
Full
Nov 14
Last Quarter

Hourly Weather History & Observations

Time (EDT) Temp. Windchill Dew Point Humidity Pressure Visibility Wind Dir Wind Speed Gust Speed Precip Events Conditions
12:15 AM 57.2 °F - 37.4 °F 48% 29.96 in 10.0 mi North 6.9 mph - N/A   Overcast
12:35 AM 55.4 °F - 37.4 °F 51% 29.96 in 10.0 mi NNW 8.1 mph - N/A   Overcast
12:55 AM 55.4 °F - 35.6 °F 47% 29.96 in 10.0 mi NNW 6.9 mph - N/A   Mostly Cloudy
1:15 AM 55.4 °F - 35.6 °F 47% 29.96 in 10.0 mi NNW 5.8 mph - N/A   Mostly Cloudy
1:35 AM 53.6 °F - 35.6 °F 51% 29.96 in 10.0 mi NNW 5.8 mph - N/A   Partly Cloudy
1:55 AM 51.8 °F - 35.6 °F 54% 29.95 in 10.0 mi NNW 3.5 mph - N/A   Clear
2:15 AM 51.8 °F - 35.6 °F 54% 29.95 in 10.0 mi NW 4.6 mph - N/A   Clear
2:35 AM 51.8 °F - 35.6 °F 54% 29.95 in 10.0 mi NW 3.5 mph - N/A   Clear
2:55 AM 50.0 °F - 35.6 °F 58% 29.95 in 10.0 mi NW 4.6 mph - N/A   Clear
3:15 AM 48.2 °F - 35.6 °F 62% 29.95 in 10.0 mi NW 4.6 mph - N/A   Clear
3:35 AM 48.2 °F - 35.6 °F 62% 29.94 in 10.0 mi Calm Calm - N/A   Clear
3:55 AM 48.2 °F - 35.6 °F 62% 29.94 in 10.0 mi NNW 5.8 mph - N/A   Clear
4:15 AM 48.2 °F - 35.6 °F 62% 29.94 in 10.0 mi NNW 5.8 mph - N/A   Clear
4:35 AM 48.2 °F - 35.6 °F 62% 29.94 in 10.0 mi NNW 5.8 mph - N/A   Clear
4:55 AM 48.2 °F - 35.6 °F 62% 29.94 in 10.0 mi Calm Calm - N/A   Clear
5:15 AM 46.4 °F 44.3 °F 35.6 °F 66% 29.95 in 10.0 mi NNW 4.6 mph - N/A   Clear
5:35 AM 48.2 °F - 35.6 °F 62% 29.95 in 10.0 mi North 9.2 mph - N/A   Clear
5:55 AM 48.2 °F - 35.6 °F 62% 29.95 in 10.0 mi NNW 9.2 mph - N/A   Clear
6:15 AM 48.2 °F - 35.6 °F 62% 29.96 in 10.0 mi North 6.9 mph - N/A   Clear
6:35 AM 48.2 °F - 35.6 °F 62% 29.97 in 10.0 mi North 5.8 mph - N/A   Clear
6:55 AM 48.2 °F - 35.6 °F 62% 29.97 in 10.0 mi NNW 4.6 mph - N/A   Clear
7:15 AM 48.2 °F - 35.6 °F 62% 29.98 in 10.0 mi NNW 5.8 mph - N/A   Clear
7:35 AM 48.2 °F - 35.6 °F 62% 29.99 in 10.0 mi NNW 5.8 mph - N/A   Clear
7:55 AM 48.2 °F - 35.6 °F 62% 29.99 in 10.0 mi NNW 5.8 mph - N/A   Clear
8:15 AM 48.2 °F - 35.6 °F 62% 30.00 in 10.0 mi NW 6.9 mph - N/A   Clear
8:35 AM 48.2 °F - 37.4 °F 66% 30.00 in 10.0 mi NNW 4.6 mph - N/A   Clear
8:55 AM 51.8 °F - 37.4 °F 58% 30.01 in 10.0 mi NW 4.6 mph - N/A   Clear
9:15 AM 51.8 °F - 37.4 °F 58% 30.02 in 10.0 mi NW 4.6 mph - N/A   Clear
9:35 AM 53.6 °F - 37.4 °F 54% 30.02 in 10.0 mi NNW 5.8 mph - N/A   Clear
9:55 AM 53.6 °F - 37.4 °F 54% 30.02 in 10.0 mi NNW 9.2 mph - N/A   Clear
10:15 AM 55.4 °F - 37.4 °F 51% 30.03 in 10.0 mi NNW 10.4 mph 17.3 mph N/A   Clear
10:35 AM 57.2 °F - 37.4 °F 48% 30.03 in 10.0 mi North 8.1 mph 18.4 mph N/A   Clear
10:55 AM 57.2 °F - 37.4 °F 48% 30.02 in 10.0 mi NNW 8.1 mph 18.4 mph N/A   Clear
11:15 AM 59.0 °F - 37.4 °F 45% 30.02 in 10.0 mi North 13.8 mph 19.6 mph N/A   Clear
11:35 AM 60.8 °F - 39.2 °F 45% 30.02 in 10.0 mi NNW 5.8 mph - N/A   Clear
11:55 AM 60.8 °F - 39.2 °F 45% 30.02 in 10.0 mi NNE 11.5 mph - N/A   Clear
12:15 PM 62.6 °F - 39.2 °F 42% 30.02 in 10.0 mi NNW 8.1 mph 16.1 mph N/A   Clear
12:35 PM 62.6 °F - 39.2 °F 42% 30.02 in 10.0 mi NNW 9.2 mph - N/A   Clear
12:55 PM 62.6 °F - 39.2 °F 42% 30.01 in 10.0 mi NNW 8.1 mph - N/A   Clear
1:15 PM 64.4 °F - 39.2 °F 40% 30.01 in 10.0 mi NNW 6.9 mph - N/A   Clear
1:35 PM 64.4 °F - 39.2 °F 40% 30.00 in 10.0 mi North 5.8 mph - N/A   Clear
1:55 PM 64.4 °F - 41.0 °F 42% 30.00 in 10.0 mi NNW 6.9 mph - N/A   Clear
2:15 PM 64.4 °F - 39.2 °F 40% 30.00 in 10.0 mi North 6.9 mph - N/A   Scattered Clouds
2:35 PM 64.4 °F - 41.0 °F 42% 29.99 in 10.0 mi NW 6.9 mph - N/A   Mostly Cloudy
2:55 PM 64.4 °F - 41.0 °F 42% 29.99 in 10.0 mi NNW 6.9 mph - N/A   Mostly Cloudy
3:15 PM 64.4 °F - 41.0 °F 42% 29.99 in 10.0 mi NW 5.8 mph - N/A   Mostly Cloudy
3:35 PM 64.4 °F - 41.0 °F 42% 29.99 in 10.0 mi NNW 6.9 mph - N/A   Mostly Cloudy
3:55 PM 64.4 °F - 41.0 °F 42% 29.99 in 10.0 mi North 5.8 mph - N/A   Mostly Cloudy
4:15 PM 64.4 °F - 39.2 °F 40% 29.99 in 10.0 mi NNW 6.9 mph - N/A   Partly Cloudy
4:35 PM 66.2 °F - 39.2 °F 37% 29.99 in 10.0 mi North 4.6 mph - N/A   Partly Cloudy
4:55 PM 64.4 °F - 39.2 °F 40% 29.99 in 10.0 mi NNW 6.9 mph - N/A   Partly Cloudy
5:15 PM 64.4 °F - 39.2 °F 40% 29.99 in 10.0 mi NNW 6.9 mph - N/A   Scattered Clouds
5:35 PM 62.6 °F - 39.2 °F 42% 29.99 in 10.0 mi NW 8.1 mph 17.3 mph N/A   Partly Cloudy
5:55 PM 62.6 °F - 39.2 °F 42% 29.99 in 10.0 mi NW 6.9 mph - N/A   Clear
6:15 PM 60.8 °F - 39.2 °F 45% 30.00 in 10.0 mi NW 6.9 mph - N/A   Clear
6:35 PM 59.0 °F - 39.2 °F 48% 30.00 in 10.0 mi NNW 6.9 mph - N/A   Clear
6:55 PM 57.2 °F - 39.2 °F 51% 30.01 in 10.0 mi NW 6.9 mph - N/A   Clear
7:15 PM 57.2 °F - 37.4 °F 48% 30.01 in 10.0 mi NNW 5.8 mph - N/A   Clear
7:35 PM 55.4 °F - 37.4 °F 51% 30.02 in 10.0 mi NNW 6.9 mph - N/A   Clear
7:55 PM 55.4 °F - 37.4 °F 51% 30.02 in 10.0 mi NNW 4.6 mph - N/A   Clear
8:15 PM 53.6 °F - 37.4 °F 54% 30.02 in 10.0 mi NW 4.6 mph - N/A   Clear
8:35 PM 53.6 °F - 37.4 °F 54% 30.03 in 10.0 mi WNW 3.5 mph - N/A   Clear
8:55 PM 51.8 °F - 37.4 °F 58% 30.04 in 10.0 mi WNW 4.6 mph - N/A   Clear
9:15 PM 51.8 °F - 37.4 °F 58% 30.04 in 10.0 mi WNW 5.8 mph - N/A   Clear
9:35 PM 51.8 °F - 37.4 °F 58% 30.05 in 10.0 mi NW 3.5 mph - N/A   Clear
9:55 PM 51.8 °F - 37.4 °F 58% 30.05 in 10.0 mi WNW 3.5 mph - N/A   Clear
10:15 PM 51.8 °F - 37.4 °F 58% 30.06 in 10.0 mi NW 4.6 mph - N/A   Clear
10:35 PM 51.8 °F - 37.4 °F 58% 30.06 in 10.0 mi NW 3.5 mph - N/A   Clear
10:55 PM 50.0 °F - 37.4 °F 62% 30.06 in 10.0 mi Calm Calm - N/A   Clear
11:15 PM 48.2 °F - 37.4 °F 66% 30.06 in 10.0 mi NNW 4.6 mph - N/A   Clear
11:35 PM 48.2 °F - 37.4 °F 66% 30.06 in 10.0 mi WNW 3.5 mph - N/A   Clear
11:55 PM 48.2 °F - 37.4 °F 66% 30.07 in 10.0 mi West 3.5 mph - N/A   Clear